CNCAT EDDH-EHAM

Flight info

Callsign CNCAT
Flight time N/A
Altitude 40000
Route WSN5G/33 WSN N125 BLUFA
Aircraft HDJT/L-SABDGRWY/H

Departure

Time 2026-04-30 18:15
Airport Hamburg Helmut Schmidt Airport (EDDH)

Arrival

Time N/A
Airport Amsterdam Airport Schiphol (EHAM)
Time Latitude Longitude Altitude Speed Heading
2026-04-30 17:39 53.62408 9.99001 45 ft 0 kts 344°
2026-04-30 18:05 53.62407 9.99081 45 ft 6 kts 112°
2026-04-30 18:06 53.62581 9.99276 45 ft 12 kts 54°
2026-04-30 18:07 53.62626 9.99651 45 ft 6 kts 78°
2026-04-30 18:08 53.62637 9.99733 44 ft 0 kts 78°
2026-04-30 18:12 53.62676 9.99845 43 ft 11 kts 27°
2026-04-30 18:13 53.62739 9.99855 43 ft 0 kts 334°
2026-04-30 18:13 53.62743 9.99852 43 ft 10 kts 334°
2026-04-30 18:14 53.64074 9.98696 223 ft 168 kts 334°
2026-04-30 18:15 53.67589 9.95696 1819 ft 207 kts 335°
2026-04-30 18:15 53.70822 9.90784 3947 ft 225 kts 289°
2026-04-30 18:16 53.70701 9.85495 5528 ft 236 kts 250°
2026-04-30 18:16 53.69633 9.80106 7164 ft 248 kts 251°
2026-04-30 18:17 53.69083 9.77314 7989 ft 253 kts 250°
2026-04-30 18:17 53.68519 9.74471 8850 ft 257 kts 251°
2026-04-30 18:17 53.67373 9.68642 10406 ft 277 kts 251°
2026-04-30 18:18 53.66737 9.65425 10423 ft 302 kts 251°
2026-04-30 18:18 53.66059 9.61993 10433 ft 311 kts 251°
2026-04-30 18:18 53.65340 9.58571 10433 ft 309 kts 244°
2026-04-30 18:18 53.64195 9.55495 10830 ft 310 kts 231°
2026-04-30 18:19 53.62927 9.52565 11658 ft 311 kts 233°
2026-04-30 18:19 53.61669 9.49558 12396 ft 316 kts 233°
2026-04-30 18:19 53.60377 9.46528 13126 ft 321 kts 232°
2026-04-30 18:19 53.59049 9.43466 13886 ft 325 kts 232°
2026-04-30 18:20 53.57708 9.40354 14591 ft 330 kts 232°
2026-04-30 18:20 53.56358 9.37208 15279 ft 333 kts 232°
2026-04-30 18:20 53.54993 9.34039 15964 ft 336 kts 232°
2026-04-30 18:20 53.53617 9.30855 16709 ft 338 kts 232°
2026-04-30 18:21 53.52224 9.27637 17397 ft 342 kts 232°
2026-04-30 18:21 53.50817 9.24383 18084 ft 346 kts 233°
2026-04-30 18:21 53.49393 9.21095 18766 ft 350 kts 233°
2026-04-30 18:21 53.47951 9.17772 19374 ft 353 kts 233°
2026-04-30 18:22 53.46501 9.14436 19990 ft 355 kts 233°
2026-04-30 18:22 53.43582 9.07730 21216 ft 361 kts 233°
2026-04-30 18:22 53.42075 9.04274 21854 ft 364 kts 233°
2026-04-30 18:23 53.40592 9.00879 22489 ft 367 kts 234°
2026-04-30 18:23 53.39077 8.97415 23110 ft 371 kts 234°
2026-04-30 18:23 53.37542 8.93912 23743 ft 374 kts 234°
2026-04-30 18:23 53.35997 8.90389 24315 ft 377 kts 234°
2026-04-30 18:24 53.33770 8.82482 25371 ft 379 kts 254°
2026-04-30 18:24 53.32988 8.78268 25879 ft 381 kts 254°
2026-04-30 18:24 53.32183 8.74025 26366 ft 383 kts 253°
2026-04-30 18:25 53.31370 8.69778 26864 ft 384 kts 253°
2026-04-30 18:25 53.29747 8.61224 27730 ft 388 kts 253°
2026-04-30 18:25 53.28924 8.56919 28134 ft 390 kts 253°
2026-04-30 18:26 53.27262 8.48249 28888 ft 394 kts 253°
2026-04-30 18:26 53.26422 8.43882 29230 ft 395 kts 253°
2026-04-30 18:26 53.25578 8.39501 29573 ft 397 kts 253°
2026-04-30 18:27 53.23873 8.30684 30168 ft 400 kts 253°
2026-04-30 18:27 53.23024 8.26308 30444 ft 402 kts 253°
2026-04-30 18:28 53.21290 8.17404 30911 ft 404 kts 253°
2026-04-30 18:28 53.20420 8.12952 31137 ft 404 kts 253°
2026-04-30 18:28 53.18693 8.04157 31735 ft 376 kts 253°
2026-04-30 18:29 53.17908 8.00173 32058 ft 347 kts 253°
2026-04-30 18:29 53.15836 7.89658 33939 ft 311 kts 253°
2026-04-30 18:30 53.14417 7.82497 32631 ft 335 kts 253°
2026-04-30 18:30 53.12959 7.75191 31593 ft 330 kts 253°
2026-04-30 18:31 53.12239 7.71582 31094 ft 327 kts 253°
2026-04-30 18:31 53.10811 7.64445 30593 ft 326 kts 252°
2026-04-30 18:32 53.09382 7.57336 30038 ft 323 kts 252°
2026-04-30 18:32 53.08669 7.53798 29751 ft 323 kts 252°
2026-04-30 18:32 53.07257 7.46805 29197 ft 319 kts 252°
2026-04-30 18:33 53.06540 7.43268 28914 ft 317 kts 252°
2026-04-30 18:33 53.05131 7.36330 28374 ft 316 kts 252°
2026-04-30 18:33 53.04427 7.32871 28105 ft 315 kts 251°
2026-04-30 18:34 53.03735 7.29481 27845 ft 313 kts 251°
2026-04-30 18:34 53.02337 7.22648 27318 ft 313 kts 251°
2026-04-30 18:34 53.01637 7.19230 27060 ft 312 kts 251°
2026-04-30 18:35 53.00938 7.15830 26807 ft 311 kts 251°
2026-04-30 18:35 53.00241 7.12439 26553 ft 309 kts 251°
2026-04-30 18:35 52.99546 7.09071 26389 ft 306 kts 250°
2026-04-30 18:36 52.98162 7.02375 26389 ft 308 kts 250°
2026-04-30 18:36 52.97467 6.99014 26389 ft 309 kts 250°
2026-04-30 18:36 52.95850 6.92455 26390 ft 306 kts 238°
2026-04-30 18:37 52.94759 6.89418 26385 ft 311 kts 237°
2026-04-30 18:37 52.93652 6.86158 26385 ft 337 kts 241°
2026-04-30 18:37 52.92545 6.82579 26290 ft 361 kts 242°
2026-04-30 18:37 52.91363 6.78788 25923 ft 378 kts 240°
2026-04-30 18:38 52.90116 6.74961 25567 ft 376 kts 240°
2026-04-30 18:38 52.88870 6.71162 25211 ft 374 kts 240°
2026-04-30 18:38 52.87649 6.67370 24854 ft 373 kts 241°
2026-04-30 18:38 52.86455 6.63647 24508 ft 370 kts 240°
2026-04-30 18:39 52.85238 6.59895 24158 ft 368 kts 240°
2026-04-30 18:39 52.84023 6.56171 23786 ft 366 kts 239°
2026-04-30 18:39 52.82823 6.52476 23388 ft 363 kts 240°
2026-04-30 18:39 52.81629 6.48802 22985 ft 362 kts 239°
2026-04-30 18:40 52.80436 6.45143 22578 ft 361 kts 239°
2026-04-30 18:40 52.79244 6.41496 22184 ft 359 kts 239°
2026-04-30 18:40 52.78061 6.37879 21797 ft 358 kts 239°
2026-04-30 18:40 52.76878 6.34270 21414 ft 356 kts 239°
2026-04-30 18:41 52.75694 6.30681 21036 ft 355 kts 239°
2026-04-30 18:41 52.74516 6.27097 20662 ft 354 kts 239°
2026-04-30 18:41 52.73338 6.23540 20289 ft 353 kts 238°
2026-04-30 18:41 52.72168 6.19994 19922 ft 352 kts 238°
2026-04-30 18:42 52.71003 6.16451 19559 ft 350 kts 238°
2026-04-30 18:42 52.68695 6.09463 18855 ft 348 kts 238°
2026-04-30 18:42 52.67532 6.05954 18485 ft 347 kts 238°
2026-04-30 18:45 52.56343 5.72408 14699 ft 325 kts 237°
2026-04-30 18:45 52.55254 5.69166 14346 ft 324 kts 237°
2026-04-30 18:45 52.54168 5.65939 13977 ft 322 kts 237°
2026-04-30 18:46 52.53087 5.62733 13579 ft 320 kts 237°
2026-04-30 18:46 52.52014 5.59548 13182 ft 317 kts 237°
2026-04-30 18:46 52.50927 5.56422 12796 ft 314 kts 232°
2026-04-30 18:46 52.49512 5.53759 12417 ft 306 kts 218°
2026-04-30 18:47 52.47900 5.51528 12035 ft 302 kts 214°
2026-04-30 18:47 52.46244 5.49400 11669 ft 300 kts 213°
2026-04-30 18:47 52.44600 5.47318 11306 ft 298 kts 212°
2026-04-30 18:47 52.42970 5.45259 10945 ft 295 kts 213°
2026-04-30 18:48 52.41897 5.43905 10709 ft 293 kts 212°
2026-04-30 18:48 52.40282 5.41869 10353 ft 292 kts 212°
2026-04-30 18:48 52.38679 5.39856 9982 ft 289 kts 213°
2026-04-30 18:48 52.37080 5.37865 9469 ft 288 kts 212°
2026-04-30 18:49 52.35009 5.35270 8792 ft 277 kts 212°
2026-04-30 18:49 52.33986 5.33979 8452 ft 273 kts 212°
2026-04-30 18:49 52.32499 5.32091 7952 ft 268 kts 212°
2026-04-30 18:49 52.31034 5.30215 7459 ft 267 kts 212°
2026-04-30 18:50 52.29550 5.28314 6985 ft 276 kts 212°
2026-04-30 18:50 52.28042 5.26371 6487 ft 274 kts 213°
2026-04-30 18:50 52.26556 5.24455 6058 ft 271 kts 212°
2026-04-30 18:50 52.25096 5.22573 5660 ft 269 kts 212°
2026-04-30 18:51 52.23625 5.20680 5261 ft 269 kts 212°
2026-04-30 18:51 52.22161 5.18806 4857 ft 266 kts 213°
2026-04-30 18:51 52.20706 5.16947 4451 ft 265 kts 212°
2026-04-30 18:51 52.19265 5.15091 4319 ft 263 kts 212°
2026-04-30 18:52 52.17825 5.13243 4315 ft 263 kts 212°
2026-04-30 18:52 52.16389 5.11410 4321 ft 262 kts 212°
2026-04-30 18:52 52.14957 5.09573 4321 ft 262 kts 213°
2026-04-30 18:52 52.13520 5.07735 4315 ft 263 kts 212°
2026-04-30 18:53 52.12080 5.05893 4322 ft 262 kts 214°
2026-04-30 18:53 52.10932 5.03557 4319 ft 273 kts 240°
2026-04-30 18:53 52.10515 5.00541 4017 ft 279 kts 264°
2026-04-30 18:53 52.10606 4.97425 3817 ft 266 kts 271°
2026-04-30 18:54 52.10787 4.94555 3814 ft 252 kts 272°
2026-04-30 18:54 52.10980 4.91748 3581 ft 248 kts 272°
2026-04-30 18:54 52.11173 4.88954 3313 ft 249 kts 272°
2026-04-30 18:54 52.11369 4.86132 3186 ft 253 kts 272°
2026-04-30 18:55 52.11565 4.83339 3060 ft 241 kts 272°
2026-04-30 18:55 52.11937 4.78261 2703 ft 220 kts 273°
2026-04-30 18:55 52.12131 4.75795 2317 ft 221 kts 281°
2026-04-30 18:56 52.14063 4.72473 1985 ft 198 kts 355°
2026-04-30 18:56 52.15361 4.72668 1987 ft 183 kts 33°
2026-04-30 18:56 52.16233 4.73978 1990 ft 166 kts 68°
2026-04-30 18:57 52.18175 4.76361 1977 ft 181 kts 36°
2026-04-30 18:57 52.19463 4.76739 1962 ft 196 kts 10°
2026-04-30 18:57 52.20810 4.76936 1657 ft 193 kts 14°
2026-04-30 18:58 52.23482 4.77211 1141 ft 190 kts 11°
2026-04-30 18:58 52.24705 4.77323 903 ft 161 kts
2026-04-30 18:58 52.25742 4.77423 692 ft 137 kts
2026-04-30 18:59 52.27498 4.77592 355 ft 123 kts
2026-04-30 19:00 52.30000 4.77833 -2 ft 123 kts 357°
2026-04-30 19:00 52.30735 4.77867 -11 ft 84 kts